Year,Month,Day,Hour,Minute,Value (Times are PST for temperature in C)
2011,04,02,00,00,4.60
2011,04,02,00,01,4.60
2011,04,02,00,02,4.60
2011,04,02,00,03,4.60
2011,04,02,00,04,4.60
2011,04,02,00,05,4.60
2011,04,02,00,06,4.70
2011,04,02,00,07,4.70
2011,04,02,00,08,4.70
2011,04,02,00,09,4.70
2011,04,02,00,10,4.70
2011,04,02,00,11,4.70
2011,04,02,00,12,4.70
2011,04,02,00,13,4.70
2011,04,02,00,14,4.70
2011,04,02,00,15,4.70
2011,04,02,00,16,4.70
2011,04,02,00,17,4.70
2011,04,02,00,18,4.80
2011,04,02,00,19,4.80
2011,04,02,00,20,4.80
2011,04,02,00,21,4.80
2011,04,02,00,22,4.80
2011,04,02,00,23,4.80
2011,04,02,00,24,4.90
2011,04,02,00,25,4.90
2011,04,02,00,26,4.90
2011,04,02,00,27,4.90
2011,04,02,00,28,4.90
2011,04,02,00,29,5.00
2011,04,02,00,30,5.00
2011,04,02,00,31,5.00
2011,04,02,00,32,5.00
2011,04,02,00,33,5.00
2011,04,02,00,34,5.00
2011,04,02,00,35,5.00
2011,04,02,00,36,5.00
2011,04,02,00,37,5.00
2011,04,02,00,38,5.00
2011,04,02,00,39,4.90
2011,04,02,00,40,4.90
2011,04,02,00,41,4.90
2011,04,02,00,42,4.80
2011,04,02,00,43,4.80
2011,04,02,00,44,4.80
2011,04,02,00,45,4.70
2011,04,02,00,46,4.70
2011,04,02,00,47,4.70
2011,04,02,00,48,4.70
2011,04,02,00,49,4.70
2011,04,02,00,50,4.70
2011,04,02,00,51,4.70
2011,04,02,00,52,4.70
2011,04,02,00,53,4.70
2011,04,02,00,54,4.70
2011,04,02,00,55,4.70
2011,04,02,00,56,4.70
2011,04,02,00,57,4.80
2011,04,02,00,58,4.80
2011,04,02,00,59,4.80
2011,04,02,01,00,4.70
2011,04,02,01,01,4.70
2011,04,02,01,02,4.70
2011,04,02,01,03,4.70
2011,04,02,01,04,4.70
2011,04,02,01,05,4.70
2011,04,02,01,06,4.70
2011,04,02,01,07,4.70
2011,04,02,01,08,4.60
2011,04,02,01,09,4.60
2011,04,02,01,10,4.60
2011,04,02,01,11,4.60
2011,04,02,01,12,4.60
2011,04,02,01,13,4.60
2011,04,02,01,14,4.60
2011,04,02,01,15,4.70
2011,04,02,01,16,4.70
2011,04,02,01,17,4.70
2011,04,02,01,18,4.70
2011,04,02,01,19,4.80
2011,04,02,01,20,4.80
2011,04,02,01,21,4.80
2011,04,02,01,22,4.90
2011,04,02,01,23,4.90
2011,04,02,01,24,4.90
2011,04,02,01,25,5.00
2011,04,02,01,26,5.00
2011,04,02,01,27,5.10
2011,04,02,01,28,5.10
2011,04,02,01,29,5.10
2011,04,02,01,30,5.10
2011,04,02,01,31,5.10
2011,04,02,01,32,5.10
2011,04,02,01,33,5.10
2011,04,02,01,34,5.10
2011,04,02,01,35,5.10
2011,04,02,01,36,5.10
2011,04,02,01,37,5.10
2011,04,02,01,38,5.10
2011,04,02,01,39,5.10
2011,04,02,01,40,5.10
2011,04,02,01,41,5.10
2011,04,02,01,42,5.10
2011,04,02,01,43,5.20
2011,04,02,01,44,5.20
2011,04,02,01,45,5.20
2011,04,02,01,46,5.20
2011,04,02,01,47,5.20
2011,04,02,01,48,5.20
2011,04,02,01,49,5.20
2011,04,02,01,50,5.20
2011,04,02,01,51,5.20
2011,04,02,01,52,5.20
2011,04,02,01,53,5.20
2011,04,02,01,54,5.20
2011,04,02,01,55,5.20
2011,04,02,01,56,5.20
2011,04,02,01,57,5.20
2011,04,02,01,58,5.20
2011,04,02,01,59,5.20
2011,04,02,02,00,5.20
2011,04,02,02,01,5.10
2011,04,02,02,02,5.10
2011,04,02,02,03,5.10
2011,04,02,02,04,5.10
2011,04,02,02,05,5.10
2011,04,02,02,06,5.10
2011,04,02,02,07,5.10
2011,04,02,02,08,5.10
2011,04,02,02,09,5.10
2011,04,02,02,10,5.10
2011,04,02,02,11,5.00
2011,04,02,02,12,5.00
2011,04,02,02,13,5.00
2011,04,02,02,14,5.00
2011,04,02,02,15,5.00
2011,04,02,02,16,5.00
2011,04,02,02,17,5.10
2011,04,02,02,18,5.10
2011,04,02,02,19,5.10
2011,04,02,02,20,5.10
2011,04,02,02,21,5.10
2011,04,02,02,22,5.10
2011,04,02,02,23,5.00
2011,04,02,02,24,5.00
2011,04,02,02,25,4.90
2011,04,02,02,26,4.90
2011,04,02,02,27,4.90
2011,04,02,02,28,4.90
2011,04,02,02,29,4.90
2011,04,02,02,30,4.90
2011,04,02,02,31,4.90
2011,04,02,02,32,4.90
2011,04,02,02,33,4.90
2011,04,02,02,34,4.80
2011,04,02,02,35,4.80
2011,04,02,02,36,4.80
2011,04,02,02,37,4.80
2011,04,02,02,38,4.80
2011,04,02,02,39,4.80
2011,04,02,02,40,4.80
2011,04,02,02,41,4.80
2011,04,02,02,42,4.90
2011,04,02,02,43,4.80
2011,04,02,02,44,4.90
2011,04,02,02,45,4.90
2011,04,02,02,46,4.90
2011,04,02,02,47,4.90
2011,04,02,02,48,4.90
2011,04,02,02,49,5.00
2011,04,02,02,50,5.00
2011,04,02,02,51,5.00
2011,04,02,02,52,5.00
2011,04,02,02,53,5.00
2011,04,02,02,54,5.10
2011,04,02,02,55,5.10
2011,04,02,02,56,5.10
2011,04,02,02,57,5.10
2011,04,02,02,58,5.10
2011,04,02,02,59,5.10
2011,04,02,03,00,5.00
2011,04,02,03,01,5.10
2011,04,02,03,02,5.10
2011,04,02,03,03,5.10
2011,04,02,03,04,5.10
2011,04,02,03,05,5.10
2011,04,02,03,06,5.10
2011,04,02,03,07,5.20
2011,04,02,03,08,5.20
2011,04,02,03,09,5.20
2011,04,02,03,10,5.10
2011,04,02,03,11,5.10
2011,04,02,03,12,5.10
2011,04,02,03,13,5.10
2011,04,02,03,14,5.10
2011,04,02,03,15,5.20
2011,04,02,03,16,5.20
2011,04,02,03,17,5.20
2011,04,02,03,18,5.20
2011,04,02,03,19,5.20
2011,04,02,03,20,5.30
2011,04,02,03,21,5.30
2011,04,02,03,22,5.30
2011,04,02,03,23,5.30
2011,04,02,03,24,5.30
2011,04,02,03,25,5.20
2011,04,02,03,26,5.20
2011,04,02,03,27,5.20
2011,04,02,03,28,5.20
2011,04,02,03,29,5.10
2011,04,02,03,30,5.10
2011,04,02,03,31,5.10
2011,04,02,03,32,5.10
2011,04,02,03,33,5.10
2011,04,02,03,34,5.10
2011,04,02,03,35,5.10
2011,04,02,03,36,5.10
2011,04,02,03,37,5.00
2011,04,02,03,38,5.00
2011,04,02,03,39,5.00
2011,04,02,03,40,5.00
2011,04,02,03,41,4.90
2011,04,02,03,42,4.90
2011,04,02,03,43,4.90
2011,04,02,03,44,4.90
2011,04,02,03,45,4.90
2011,04,02,03,46,4.90
2011,04,02,03,47,4.90
2011,04,02,03,48,4.90
2011,04,02,03,49,4.90
2011,04,02,03,50,4.90
2011,04,02,03,51,4.90
2011,04,02,03,52,4.90
2011,04,02,03,53,4.90
2011,04,02,03,54,4.90
2011,04,02,03,55,4.90
2011,04,02,03,56,4.90
2011,04,02,03,57,4.90
2011,04,02,03,58,4.90
2011,04,02,03,59,4.90
2011,04,02,04,00,4.90
2011,04,02,04,01,4.90
2011,04,02,04,02,4.90
2011,04,02,04,03,4.90
2011,04,02,04,04,4.90
2011,04,02,04,05,4.90
2011,04,02,04,06,4.90
2011,04,02,04,07,4.90
2011,04,02,04,08,4.80
2011,04,02,04,09,4.80
2011,04,02,04,10,4.80
2011,04,02,04,11,4.80
2011,04,02,04,12,4.70
2011,04,02,04,13,4.70
2011,04,02,04,14,4.70
2011,04,02,04,15,4.60
2011,04,02,04,16,4.60
2011,04,02,04,17,4.60
2011,04,02,04,18,4.60
2011,04,02,04,19,4.60
2011,04,02,04,20,4.60
2011,04,02,04,21,4.50
2011,04,02,04,22,4.50
2011,04,02,04,23,4.40
2011,04,02,04,24,4.40
2011,04,02,04,25,4.30
2011,04,02,04,26,4.30
2011,04,02,04,27,4.30
2011,04,02,04,28,4.30
2011,04,02,04,29,4.30
2011,04,02,04,30,4.30
2011,04,02,04,31,4.30
2011,04,02,04,32,4.30
2011,04,02,04,33,4.30
2011,04,02,04,34,4.30
2011,04,02,04,35,4.30
2011,04,02,04,36,4.30
2011,04,02,04,37,4.20
2011,04,02,04,38,4.20
2011,04,02,04,39,4.20
2011,04,02,04,40,4.20
2011,04,02,04,41,4.20
2011,04,02,04,42,4.20
2011,04,02,04,43,4.20
2011,04,02,04,44,4.30
2011,04,02,04,45,4.30
2011,04,02,04,46,4.30
2011,04,02,04,47,4.30
2011,04,02,04,48,4.30
2011,04,02,04,49,4.30
2011,04,02,04,50,4.40
2011,04,02,04,51,4.40
2011,04,02,04,52,4.50
2011,04,02,04,53,4.50
2011,04,02,04,54,4.50
2011,04,02,04,55,4.50
2011,04,02,04,56,4.50
2011,04,02,04,57,4.40
2011,04,02,04,58,4.40
2011,04,02,04,59,4.40
2011,04,02,05,00,4.30
2011,04,02,05,01,4.30
2011,04,02,05,02,4.30
2011,04,02,05,03,4.30
2011,04,02,05,04,4.30
2011,04,02,05,05,4.30
2011,04,02,05,06,4.30
2011,04,02,05,07,4.20
2011,04,02,05,08,4.20
2011,04,02,05,09,4.20
2011,04,02,05,10,4.10
2011,04,02,05,11,4.10
2011,04,02,05,12,4.00
2011,04,02,05,13,4.00
2011,04,02,05,14,4.00
2011,04,02,05,15,4.00
2011,04,02,05,16,4.00
2011,04,02,05,17,4.00
2011,04,02,05,18,4.10
2011,04,02,05,19,4.10
2011,04,02,05,20,4.10
2011,04,02,05,21,4.00
2011,04,02,05,22,4.00
2011,04,02,05,23,4.00
2011,04,02,05,24,4.00
2011,04,02,05,25,4.00
2011,04,02,05,26,4.00
2011,04,02,05,27,4.00
2011,04,02,05,28,4.00
2011,04,02,05,29,4.00
2011,04,02,05,30,3.90
2011,04,02,05,31,3.90
2011,04,02,05,32,3.90
2011,04,02,05,33,3.90
2011,04,02,05,34,3.90
2011,04,02,05,35,3.90
2011,04,02,05,36,3.90
2011,04,02,05,37,3.90
2011,04,02,05,38,3.90
2011,04,02,05,39,3.90
2011,04,02,05,40,3.90
2011,04,02,05,41,3.90
2011,04,02,05,42,3.80
2011,04,02,05,43,3.80
2011,04,02,05,44,3.80
2011,04,02,05,45,3.80
2011,04,02,05,46,3.80
2011,04,02,05,47,3.80
2011,04,02,05,48,3.80
2011,04,02,05,49,3.80
2011,04,02,05,50,3.80
2011,04,02,05,51,3.80
2011,04,02,05,52,3.80
2011,04,02,05,53,3.80
2011,04,02,05,54,3.70
2011,04,02,05,55,3.70
2011,04,02,05,56,3.70
2011,04,02,05,57,3.70
2011,04,02,05,58,3.70
2011,04,02,05,59,3.70
2011,04,02,06,00,3.60
2011,04,02,06,01,3.60
2011,04,02,06,02,3.60
2011,04,02,06,03,3.60
2011,04,02,06,04,3.50
2011,04,02,06,05,3.50
2011,04,02,06,06,3.50
2011,04,02,06,07,3.50
2011,04,02,06,08,3.50
2011,04,02,06,09,3.50
2011,04,02,06,10,3.50
2011,04,02,06,11,3.50
2011,04,02,06,12,3.50
2011,04,02,06,13,3.40
2011,04,02,06,14,3.40
2011,04,02,06,15,3.40
2011,04,02,06,16,3.40
2011,04,02,06,17,3.40
2011,04,02,06,18,3.40
2011,04,02,06,19,3.40
2011,04,02,06,20,3.40
2011,04,02,06,21,3.40
2011,04,02,06,22,3.40
2011,04,02,06,23,3.30
2011,04,02,06,24,3.30
2011,04,02,06,25,3.30
2011,04,02,06,26,3.30
2011,04,02,06,27,3.30
2011,04,02,06,28,3.30
2011,04,02,06,29,3.30
2011,04,02,06,30,3.30
2011,04,02,06,31,3.30
2011,04,02,06,32,3.30
2011,04,02,06,33,3.30
2011,04,02,06,34,3.20
2011,04,02,06,35,3.20
2011,04,02,06,36,3.20
2011,04,02,06,37,3.20
2011,04,02,06,38,3.20
2011,04,02,06,39,3.20
2011,04,02,06,40,3.20
2011,04,02,06,41,3.20
2011,04,02,06,42,3.20
2011,04,02,06,43,3.20
2011,04,02,06,44,3.20
2011,04,02,06,45,3.20
2011,04,02,06,46,3.10
2011,04,02,06,47,3.10
2011,04,02,06,48,3.10
2011,04,02,06,49,3.10
2011,04,02,06,50,3.10
2011,04,02,06,51,3.10
2011,04,02,06,52,3.10
2011,04,02,06,53,3.10
2011,04,02,06,54,3.10
2011,04,02,06,55,3.20
2011,04,02,06,56,3.20
2011,04,02,06,57,3.20
2011,04,02,06,58,3.20
2011,04,02,06,59,3.20
2011,04,02,07,00,3.20
2011,04,02,07,01,3.20
2011,04,02,07,02,3.20
2011,04,02,07,03,3.20
2011,04,02,07,04,3.20
2011,04,02,07,05,3.30
2011,04,02,07,06,3.30
2011,04,02,07,07,3.30
2011,04,02,07,08,3.40
2011,04,02,07,09,3.40
2011,04,02,07,10,3.40
2011,04,02,07,11,3.40
2011,04,02,07,12,3.40
2011,04,02,07,13,3.40
2011,04,02,07,14,3.50
2011,04,02,07,15,3.50
2011,04,02,07,16,3.60
2011,04,02,07,17,3.60
2011,04,02,07,18,3.70
2011,04,02,07,19,3.70
2011,04,02,07,20,3.70
2011,04,02,07,21,3.80
2011,04,02,07,22,3.90
2011,04,02,07,23,3.90
2011,04,02,07,24,3.90
2011,04,02,07,25,3.90
2011,04,02,07,26,4.00
2011,04,02,07,27,4.00
2011,04,02,07,28,4.10
2011,04,02,07,29,4.10
2011,04,02,07,30,4.10
2011,04,02,07,31,4.20
2011,04,02,07,32,4.30
2011,04,02,07,33,4.30
2011,04,02,07,34,4.40
2011,04,02,07,35,4.50
2011,04,02,07,36,4.60
2011,04,02,07,37,4.60
2011,04,02,07,38,4.70
2011,04,02,07,39,4.70
2011,04,02,07,40,4.80
2011,04,02,07,41,4.90
2011,04,02,07,42,4.90
2011,04,02,07,43,5.00
2011,04,02,07,44,5.10
2011,04,02,07,45,5.10
2011,04,02,07,46,5.20
2011,04,02,07,47,5.20
2011,04,02,07,48,5.20
2011,04,02,07,49,5.30
2011,04,02,07,50,5.30
2011,04,02,07,51,5.30
2011,04,02,07,52,5.30
2011,04,02,07,53,5.30
2011,04,02,07,54,5.30
2011,04,02,07,55,5.30
2011,04,02,07,56,5.30
2011,04,02,07,57,5.30
2011,04,02,07,58,5.30
2011,04,02,07,59,5.30
2011,04,02,08,00,5.30
2011,04,02,08,01,5.30
2011,04,02,08,02,5.30
2011,04,02,08,03,5.30
2011,04,02,08,04,5.40
2011,04,02,08,05,5.40
2011,04,02,08,06,5.40
2011,04,02,08,07,5.40
2011,04,02,08,08,5.40
2011,04,02,08,09,5.50
2011,04,02,08,10,5.50
2011,04,02,08,11,5.60
2011,04,02,08,12,5.60
2011,04,02,08,13,5.60
2011,04,02,08,14,5.70
2011,04,02,08,15,5.70
2011,04,02,08,16,5.70
2011,04,02,08,17,5.70
2011,04,02,08,18,5.80
2011,04,02,08,19,5.80
2011,04,02,08,20,5.80
2011,04,02,08,21,5.80
2011,04,02,08,22,5.90
2011,04,02,08,23,5.90
2011,04,02,08,24,5.90
2011,04,02,08,25,5.90
2011,04,02,08,26,5.90
2011,04,02,08,27,5.90
2011,04,02,08,28,5.90
2011,04,02,08,29,5.90
2011,04,02,08,30,5.80
2011,04,02,08,31,5.80
2011,04,02,08,32,5.80
2011,04,02,08,33,5.70
2011,04,02,08,34,5.70
2011,04,02,08,35,5.70
2011,04,02,08,36,5.70
2011,04,02,08,37,5.80
2011,04,02,08,38,5.80
2011,04,02,08,39,5.80
2011,04,02,08,40,5.80
2011,04,02,08,41,5.80
2011,04,02,08,42,5.80
2011,04,02,08,43,5.80
2011,04,02,08,44,5.80
2011,04,02,08,45,5.80
2011,04,02,08,46,5.80
2011,04,02,08,47,5.80
2011,04,02,08,48,5.80
2011,04,02,08,49,5.80
2011,04,02,08,50,5.80
2011,04,02,08,51,5.80
2011,04,02,08,52,5.80
2011,04,02,08,53,5.80
2011,04,02,08,54,5.80
2011,04,02,08,55,5.90
2011,04,02,08,56,5.90
2011,04,02,08,57,5.90
2011,04,02,08,58,6.00
2011,04,02,08,59,6.00
2011,04,02,09,00,6.00
2011,04,02,09,01,6.10
2011,04,02,09,02,6.10
2011,04,02,09,03,6.10
2011,04,02,09,04,6.10
2011,04,02,09,05,6.20
2011,04,02,09,06,6.20
2011,04,02,09,07,6.20
2011,04,02,09,08,6.20
2011,04,02,09,09,6.20
2011,04,02,09,10,6.30
2011,04,02,09,11,6.30
2011,04,02,09,12,6.30
2011,04,02,09,13,6.30
2011,04,02,09,14,6.30
2011,04,02,09,15,6.30
2011,04,02,09,16,6.40
2011,04,02,09,17,6.40
2011,04,02,09,18,6.40
2011,04,02,09,19,6.40
2011,04,02,09,20,6.40
2011,04,02,09,21,6.40
2011,04,02,09,22,6.40
2011,04,02,09,23,6.50
2011,04,02,09,24,6.50
2011,04,02,09,25,6.50
2011,04,02,09,26,6.50
2011,04,02,09,27,6.50
2011,04,02,09,28,6.50
2011,04,02,09,29,6.50
2011,04,02,09,30,6.50
2011,04,02,09,31,6.50
2011,04,02,09,32,6.50
2011,04,02,09,33,6.50
2011,04,02,09,34,6.50
2011,04,02,09,35,6.50
2011,04,02,09,36,6.50
2011,04,02,09,37,6.50
2011,04,02,09,38,6.50
2011,04,02,09,39,6.50
2011,04,02,09,40,6.50
2011,04,02,09,41,6.60
2011,04,02,09,42,6.60
2011,04,02,09,43,6.60
2011,04,02,09,44,6.60
2011,04,02,09,45,6.60
2011,04,02,09,46,6.70
2011,04,02,09,47,6.70
2011,04,02,09,48,6.70
2011,04,02,09,49,6.70
2011,04,02,09,50,6.70
2011,04,02,09,51,6.80
2011,04,02,09,52,6.80
2011,04,02,09,53,6.80
2011,04,02,09,54,6.80
2011,04,02,09,55,6.80
2011,04,02,09,56,6.80
2011,04,02,09,57,6.80
2011,04,02,09,58,6.80
2011,04,02,09,59,6.80
2011,04,02,10,00,6.80
2011,04,02,10,01,6.80
2011,04,02,10,02,6.80
2011,04,02,10,03,6.80
2011,04,02,10,04,6.80
2011,04,02,10,05,6.80
2011,04,02,10,06,6.80
2011,04,02,10,07,6.80
2011,04,02,10,08,6.80
2011,04,02,10,09,6.80
2011,04,02,10,10,6.80
2011,04,02,10,11,6.80
2011,04,02,10,12,6.80
2011,04,02,10,13,6.80
2011,04,02,10,14,6.80
2011,04,02,10,15,6.80
2011,04,02,10,16,6.80
2011,04,02,10,17,6.80
2011,04,02,10,18,6.70
2011,04,02,10,19,6.70
2011,04,02,10,20,6.70
2011,04,02,10,21,6.70
2011,04,02,10,22,6.70
2011,04,02,10,23,6.70
2011,04,02,10,24,6.70
2011,04,02,10,25,6.70
2011,04,02,10,26,6.70
2011,04,02,10,27,6.70
2011,04,02,10,28,6.70
2011,04,02,10,29,6.70
2011,04,02,10,30,6.70
2011,04,02,10,31,6.70
2011,04,02,10,32,6.70
2011,04,02,10,33,6.80
2011,04,02,10,34,6.80
2011,04,02,10,35,6.80
2011,04,02,10,36,6.80
2011,04,02,10,37,6.80
2011,04,02,10,38,6.80
2011,04,02,10,39,6.80
2011,04,02,10,40,6.80
2011,04,02,10,41,6.80
2011,04,02,10,42,6.80
2011,04,02,10,43,6.80
2011,04,02,10,44,6.90
2011,04,02,10,45,6.90
2011,04,02,10,46,6.90
2011,04,02,10,47,7.00
2011,04,02,10,48,7.00
2011,04,02,10,49,7.10
2011,04,02,10,50,7.10
2011,04,02,10,51,7.10
2011,04,02,10,52,7.20
2011,04,02,10,53,7.20
2011,04,02,10,54,7.20
2011,04,02,10,55,7.20
2011,04,02,10,56,7.20
2011,04,02,10,57,7.30
2011,04,02,10,58,7.30
2011,04,02,10,59,7.30
2011,04,02,11,00,7.40
2011,04,02,11,01,7.50
2011,04,02,11,02,7.50
2011,04,02,11,03,7.60
2011,04,02,11,04,7.70
2011,04,02,11,05,7.70
2011,04,02,11,06,7.80
2011,04,02,11,07,7.90
2011,04,02,11,08,7.90
2011,04,02,11,09,8.00
2011,04,02,11,10,8.00
2011,04,02,11,11,8.00
2011,04,02,11,12,8.00
2011,04,02,11,13,8.10
2011,04,02,11,14,8.10
2011,04,02,11,15,8.10
2011,04,02,11,16,8.10
2011,04,02,11,17,8.10
2011,04,02,11,18,8.10
2011,04,02,11,19,8.00
2011,04,02,11,20,8.00
2011,04,02,11,21,8.00
2011,04,02,11,22,7.90
2011,04,02,11,23,7.90
2011,04,02,11,24,7.90
2011,04,02,11,25,8.00
2011,04,02,11,26,8.00
2011,04,02,11,27,8.00
2011,04,02,11,28,8.00
2011,04,02,11,29,8.00
2011,04,02,11,30,8.10
2011,04,02,11,31,8.20
2011,04,02,11,32,8.30
2011,04,02,11,33,8.40
2011,04,02,11,34,8.50
2011,04,02,11,35,8.60
2011,04,02,11,36,8.70
2011,04,02,11,37,8.70
2011,04,02,11,38,8.70
2011,04,02,11,39,8.70
2011,04,02,11,40,8.70
2011,04,02,11,41,8.70
2011,04,02,11,42,8.60
2011,04,02,11,43,8.60
2011,04,02,11,44,8.60
2011,04,02,11,45,8.60
2011,04,02,11,46,8.50
2011,04,02,11,47,8.50
2011,04,02,11,48,8.40
2011,04,02,11,49,8.40
2011,04,02,11,50,8.40
2011,04,02,11,51,8.30
2011,04,02,11,52,8.30
2011,04,02,11,53,8.30
2011,04,02,11,54,8.30
2011,04,02,11,55,8.30
2011,04,02,11,56,8.40
2011,04,02,11,57,8.40
2011,04,02,11,58,8.40
2011,04,02,11,59,8.40
2011,04,02,12,00,8.50
2011,04,02,12,01,8.50
2011,04,02,12,02,8.50
2011,04,02,12,03,8.50
2011,04,02,12,04,8.50
2011,04,02,12,05,8.50
2011,04,02,12,06,8.50
2011,04,02,12,07,8.50
2011,04,02,12,08,8.50
2011,04,02,12,09,8.50
2011,04,02,12,10,8.50
2011,04,02,12,11,8.50
2011,04,02,12,12,8.60
2011,04,02,12,13,8.60
2011,04,02,12,14,8.60
2011,04,02,12,15,8.60
2011,04,02,12,16,8.60
2011,04,02,12,17,8.60
2011,04,02,12,18,8.60
2011,04,02,12,19,8.70
2011,04,02,12,20,8.70
2011,04,02,12,21,8.70
2011,04,02,12,22,8.60
2011,04,02,12,23,8.60
2011,04,02,12,24,8.60
2011,04,02,12,25,8.60
2011,04,02,12,26,8.70
2011,04,02,12,27,8.70
2011,04,02,12,28,8.70
2011,04,02,12,29,8.70
2011,04,02,12,30,8.70
2011,04,02,12,31,8.80
2011,04,02,12,32,8.80
2011,04,02,12,33,8.90
2011,04,02,12,34,9.00
2011,04,02,12,35,9.00
2011,04,02,12,36,9.10
2011,04,02,12,37,9.20
2011,04,02,12,38,9.20
2011,04,02,12,39,9.30
2011,04,02,12,40,9.40
2011,04,02,12,41,9.50
2011,04,02,12,42,9.60
2011,04,02,12,43,9.60
2011,04,02,12,44,9.60
2011,04,02,12,45,9.70
2011,04,02,12,46,9.80
2011,04,02,12,47,9.80
2011,04,02,12,48,9.90
2011,04,02,12,49,9.90
2011,04,02,12,50,9.90
2011,04,02,12,51,9.90
2011,04,02,12,52,9.90
2011,04,02,12,53,9.90
2011,04,02,12,54,10.00
2011,04,02,12,55,9.90
2011,04,02,12,56,9.90
2011,04,02,12,57,9.90
2011,04,02,12,58,10.00
2011,04,02,12,59,10.00
2011,04,02,13,00,10.10
2011,04,02,13,01,10.10
2011,04,02,13,02,10.10
2011,04,02,13,03,10.20
2011,04,02,13,04,10.20
2011,04,02,13,05,10.20
2011,04,02,13,06,10.30
2011,04,02,13,07,10.30
2011,04,02,13,08,10.30
2011,04,02,13,09,10.30
2011,04,02,13,10,10.30
2011,04,02,13,11,10.30
2011,04,02,13,12,10.30
2011,04,02,13,13,10.30
2011,04,02,13,14,10.30
2011,04,02,13,15,10.40
2011,04,02,13,16,10.40
2011,04,02,13,17,10.40
2011,04,02,13,18,10.50
2011,04,02,13,19,10.50
2011,04,02,13,20,10.60
2011,04,02,13,21,10.60
2011,04,02,13,22,10.70
2011,04,02,13,23,10.70
2011,04,02,13,24,10.70
2011,04,02,13,25,10.70
2011,04,02,13,26,10.70
2011,04,02,13,27,10.60
2011,04,02,13,28,10.60
2011,04,02,13,29,10.60
2011,04,02,13,30,10.50
2011,04,02,13,31,10.50
2011,04,02,13,32,10.50
2011,04,02,13,33,10.60
2011,04,02,13,34,10.60
2011,04,02,13,35,10.60
2011,04,02,13,36,10.60
2011,04,02,13,37,10.60
2011,04,02,13,38,10.70
2011,04,02,13,39,10.80
2011,04,02,13,40,10.80
2011,04,02,13,41,10.90
2011,04,02,13,42,10.90
2011,04,02,13,43,10.90
2011,04,02,13,44,11.00
2011,04,02,13,45,11.00
2011,04,02,13,46,11.00
2011,04,02,13,47,11.00
2011,04,02,13,48,11.00
2011,04,02,13,49,11.00
2011,04,02,13,50,11.00
2011,04,02,13,51,11.00
2011,04,02,13,52,11.00
2011,04,02,13,53,11.00
2011,04,02,13,54,11.00
2011,04,02,13,55,11.00
2011,04,02,13,56,10.90
2011,04,02,13,57,10.90
2011,04,02,13,58,10.90
2011,04,02,13,59,11.00
2011,04,02,14,00,11.00
2011,04,02,14,01,11.00
2011,04,02,14,02,11.00
2011,04,02,14,03,10.90
2011,04,02,14,04,10.90
2011,04,02,14,05,10.80
2011,04,02,14,06,10.80
2011,04,02,14,07,10.80
2011,04,02,14,08,10.80
2011,04,02,14,09,10.80
2011,04,02,14,10,10.80
2011,04,02,14,11,10.80
2011,04,02,14,12,10.90
2011,04,02,14,13,10.90
2011,04,02,14,14,10.90
2011,04,02,14,15,10.90
2011,04,02,14,16,10.90
2011,04,02,14,17,10.90
2011,04,02,14,18,10.90
2011,04,02,14,19,10.90
2011,04,02,14,20,11.00
2011,04,02,14,21,11.00
2011,04,02,14,22,11.10
2011,04,02,14,23,11.10
2011,04,02,14,24,11.10
2011,04,02,14,25,11.10
2011,04,02,14,26,11.20
2011,04,02,14,27,11.20
2011,04,02,14,28,11.20
2011,04,02,14,29,11.20
2011,04,02,14,30,11.20
2011,04,02,14,31,11.20
2011,04,02,14,32,11.20
2011,04,02,14,33,11.20
2011,04,02,14,34,11.20
2011,04,02,14,35,11.30
2011,04,02,14,36,11.30
2011,04,02,14,37,11.40
2011,04,02,14,38,11.40
2011,04,02,14,39,11.50
2011,04,02,14,40,11.50
2011,04,02,14,41,11.50
2011,04,02,14,42,11.50
2011,04,02,14,43,11.50
2011,04,02,14,44,11.50
2011,04,02,14,45,11.50
2011,04,02,14,46,11.50
2011,04,02,14,47,11.50
2011,04,02,14,48,11.50
2011,04,02,14,49,11.50
2011,04,02,14,50,11.50
2011,04,02,14,51,11.50
2011,04,02,14,52,11.50
2011,04,02,14,53,11.50
2011,04,02,14,54,11.40
2011,04,02,14,55,11.40
2011,04,02,14,56,11.30
2011,04,02,14,57,11.30
2011,04,02,14,58,11.30
2011,04,02,14,59,11.30
2011,04,02,15,00,11.30
2011,04,02,15,01,11.30
2011,04,02,15,02,11.30
2011,04,02,15,03,11.30
2011,04,02,15,04,11.30
2011,04,02,15,05,11.40
2011,04,02,15,06,11.40
2011,04,02,15,07,11.50
2011,04,02,15,08,11.50
2011,04,02,15,09,11.50
2011,04,02,15,10,11.50
2011,04,02,15,11,11.50
2011,04,02,15,12,11.50
2011,04,02,15,13,11.40
2011,04,02,15,14,11.40
2011,04,02,15,15,11.40
2011,04,02,15,16,11.30
2011,04,02,15,17,11.20
2011,04,02,15,18,11.20
2011,04,02,15,19,11.10
2011,04,02,15,20,11.00
2011,04,02,15,21,11.00
2011,04,02,15,22,10.90
2011,04,02,15,23,10.90
2011,04,02,15,24,10.80
2011,04,02,15,25,10.80
2011,04,02,15,26,10.70
2011,04,02,15,27,10.70
2011,04,02,15,28,10.70
2011,04,02,15,29,10.60
2011,04,02,15,30,10.60
2011,04,02,15,31,10.50
2011,04,02,15,32,10.40
2011,04,02,15,33,10.40
2011,04,02,15,34,10.30
2011,04,02,15,35,10.30
2011,04,02,15,36,10.20
2011,04,02,15,37,10.20
2011,04,02,15,38,10.20
2011,04,02,15,39,10.20
2011,04,02,15,40,10.20
2011,04,02,15,41,10.30
2011,04,02,15,42,10.30
2011,04,02,15,43,10.30
2011,04,02,15,44,10.40
2011,04,02,15,45,10.40
2011,04,02,15,46,10.40
2011,04,02,15,47,10.40
2011,04,02,15,48,10.40
2011,04,02,15,49,10.40
2011,04,02,15,50,10.40
2011,04,02,15,51,10.40
2011,04,02,15,52,10.40
2011,04,02,15,53,10.30
2011,04,02,15,54,10.30
2011,04,02,15,55,10.20
2011,04,02,15,56,10.10
2011,04,02,15,57,10.00
2011,04,02,15,58,10.00
2011,04,02,15,59,9.90
2011,04,02,16,00,9.80
2011,04,02,16,01,9.70
2011,04,02,16,02,9.60
2011,04,02,16,03,9.60
2011,04,02,16,04,9.60
2011,04,02,16,05,9.60
2011,04,02,16,06,9.50
2011,04,02,16,07,9.50
2011,04,02,16,08,9.40
2011,04,02,16,09,9.40
2011,04,02,16,10,9.30
2011,04,02,16,11,9.30
2011,04,02,16,12,9.30
2011,04,02,16,13,9.30
2011,04,02,16,14,9.30
2011,04,02,16,15,9.30
2011,04,02,16,16,9.20
2011,04,02,16,17,9.20
2011,04,02,16,18,9.20
2011,04,02,16,19,9.20
2011,04,02,16,20,9.10
2011,04,02,16,21,9.10
2011,04,02,16,22,9.10
2011,04,02,16,23,9.10
2011,04,02,16,24,9.10
2011,04,02,16,25,9.10
2011,04,02,16,26,9.10
2011,04,02,16,27,9.10
2011,04,02,16,28,9.00
2011,04,02,16,29,9.00
2011,04,02,16,30,9.00
2011,04,02,16,31,9.00
2011,04,02,16,32,9.00
2011,04,02,16,33,8.90
2011,04,02,16,34,8.90
2011,04,02,16,35,8.90
2011,04,02,16,36,8.90
2011,04,02,16,37,8.90
2011,04,02,16,38,9.00
2011,04,02,16,39,9.00
2011,04,02,16,40,9.00
2011,04,02,16,41,9.00
2011,04,02,16,42,9.10
2011,04,02,16,43,9.10
2011,04,02,16,44,9.10
2011,04,02,16,45,9.10
2011,04,02,16,46,9.10
2011,04,02,16,47,9.10
2011,04,02,16,48,9.10
2011,04,02,16,49,9.10
2011,04,02,16,50,9.10
2011,04,02,16,51,9.10
2011,04,02,16,52,9.20
2011,04,02,16,53,9.20
2011,04,02,16,54,9.20
2011,04,02,16,55,9.30
2011,04,02,16,56,9.30
2011,04,02,16,57,9.40
2011,04,02,16,58,9.50
2011,04,02,16,59,9.60
2011,04,02,17,00,9.70
2011,04,02,17,01,9.90
2011,04,02,17,02,10.00
2011,04,02,17,03,10.00
2011,04,02,17,04,10.00
2011,04,02,17,05,10.10
2011,04,02,17,06,10.20
2011,04,02,17,07,10.30
2011,04,02,17,08,10.40
2011,04,02,17,09,10.50
2011,04,02,17,10,10.50
2011,04,02,17,11,10.60
2011,04,02,17,12,10.60
2011,04,02,17,13,10.60
2011,04,02,17,14,10.60
2011,04,02,17,15,10.60
2011,04,02,17,16,10.70
2011,04,02,17,17,10.70
2011,04,02,17,18,10.70
2011,04,02,17,19,10.70
2011,04,02,17,20,10.70
2011,04,02,17,21,10.70
2011,04,02,17,22,10.60
2011,04,02,17,23,10.60
2011,04,02,17,24,10.50
2011,04,02,17,25,10.50
2011,04,02,17,26,10.40
2011,04,02,17,27,10.40
2011,04,02,17,28,10.40
2011,04,02,17,29,10.40
2011,04,02,17,30,10.40
2011,04,02,17,31,10.40
2011,04,02,17,32,10.40
2011,04,02,17,33,10.40
2011,04,02,17,34,10.40
2011,04,02,17,35,10.40
2011,04,02,17,36,10.30
2011,04,02,17,37,10.30
2011,04,02,17,38,10.30
2011,04,02,17,39,10.20
2011,04,02,17,40,10.20
2011,04,02,17,41,10.10
2011,04,02,17,42,10.10
2011,04,02,17,43,10.10
2011,04,02,17,44,10.00
2011,04,02,17,45,9.90
2011,04,02,17,46,9.90
2011,04,02,17,47,9.90
2011,04,02,17,48,9.90
2011,04,02,17,49,9.90
2011,04,02,17,50,9.80
2011,04,02,17,51,9.80
2011,04,02,17,52,9.80
2011,04,02,17,53,9.80
2011,04,02,17,54,9.80
2011,04,02,17,55,9.80
2011,04,02,17,56,9.90